Location: *
(40.4000°N, 15.1200°E)
Time: 06:52:54
(UTC+00:00)

COSMOS 2455 - Pass Details

Date: 09 April 2020
Orbit: 900 x 910 km, 67.1° (Epoch: 25 May)

Event Time Altitude Azimuth Distance (km) Brightness Sun altitude
Rises 18:18:08 0° 337° (NNW) 3,544 6.6 -9.2°
Reaches altitude 10° 18:20:53 10° 346° (NNW) 2,600 5.7 -9.7°
Maximum altitude 18:26:22 35° 52° (NE) 1,434 3.7 -10.7°
Enters shadow 18:30:45 15° 111° (ESE) 2,254 4.2 -11.4°
